Location: Ferchesar
(52.6477°N, 12.4298°E)
Time: 16:39:59
(UTC+01:00)

S-56A Canister/Altair - Visible Passes

Search period start: 03 December 2022 00:00
Search period end: 13 December 2022 00:00
Orbit: 638 x 2494 km, 38.9° (Epoch: 02 December)

Date Brightness Start Highest point End Pass type
(mag) Time Alt. Az. Time Alt. Az. Time Alt. Az.
03 Dec 10.1 06:59:04 10° SSW 07:01:31 13° SSE 07:03:45 10° SE visible
04 Dec 10.2 06:26:25 10° SSW 06:29:01 13° SSE 06:31:21 10° SE visible
05 Dec 10.2 05:53:41 10° SSW 05:56:29 13° SSE 05:58:58 10° SE visible
06 Dec 10.2 05:20:55 10° SSW 05:23:56 13° SSE 05:26:35 10° SE visible
06 Dec 9.8 07:23:05 10° SW 07:26:41 18° S 07:29:49 10° SE visible
07 Dec 10.3 04:48:07 10° S 04:51:22 14° SSE 04:54:12 10° SE visible
07 Dec 9.8 06:50:10 10° SW 06:54:11 19° S 06:57:35 10° SE visible
08 Dec 10.3 04:16:54 12° S 04:18:46 14° SSE 04:21:47 10° SE visible
08 Dec 9.7 06:17:12 10° SW 06:21:41 20° S 06:25:21 10° SE visible
09 Dec 10.4 03:46:18 14° SSE 03:46:18 14° SSE 03:49:19 10° SE visible
09 Dec 9.7 05:44:10 10° SW 05:49:09 21° S 05:53:07 10° SE visible
10 Dec 10.6 03:15:37 12° SE 03:15:37 12° SE 03:16:48 10° SE visible
10 Dec 9.8 05:13:03 15° SSW 05:16:34 22° S 05:20:52 10° SE visible
10 Dec 9.7 07:15:13 10° WSW 07:19:18 19° SSW 07:22:43 10° SSE visible
11 Dec 9.8 04:42:17 21° S 04:43:58 22° S 04:48:35 10° ESE visible
11 Dec 9.6 06:42:03 10° WSW 06:46:48 21° SSW 06:50:39 10° SE visible
12 Dec 9.9 04:11:28 23° SSE 04:11:28 23° SSE 04:16:17 10° ESE visible
12 Dec 9.6 06:08:54 10° WSW 06:14:17 23° S 06:18:32 10° SE visible
